EN

Hourly Weather Barnowko

Today, 28 February, Sunday

Time Temperature Precipitation Wind Pressure Humidity
00:00 +1°C° 0 mm 3 mps 773 mmHg 94%
01:00 +1°C° 0 mm 3 mps 773 mmHg 95%
02:00 +1°C° 0 mm 3 mps 773 mmHg 95%
03:00 +1°C° 0 mm 3 mps 773 mmHg 94%
04:00 +1°C° 0 mm 3 mps 772 mmHg 94%
05:00 0°C° 0 mm 3 mps 772 mmHg 95%
06:00 0°C° 0 mm 3 mps 772 mmHg 95%
07:00 0°C° 0 mm 3 mps 772 mmHg 96%
08:00 +1°C° 0 mm 3 mps 772 mmHg 92%
09:00 +2°C° 0 mm 3 mps 772 mmHg 88%
10:00 +4°C° 0 mm 4 mps 772 mmHg 84%
11:00 +5°C° 0 mm 4 mps 772 mmHg 80%
12:00 +6°C° 0 mm 4 mps 772 mmHg 76%
13:00 +8°C° 0 mm 4 mps 771 mmHg 73%
14:00 +8°C° 0 mm 4 mps 771 mmHg 71%
15:00 +9°C° 0 mm 3 mps 771 mmHg 70%
16:00 +9°C° 0 mm 3 mps 771 mmHg 68%
17:00 +8°C° 0 mm 3 mps 771 mmHg 74%
18:00 +6°C° 0 mm 2 mps 771 mmHg 79%
19:00 +5°C° 0 mm 2 mps 771 mmHg 84%
20:00 +4°C° 0 mm 2 mps 771 mmHg 86%
21:00 +5°C° 0 mm 1 mps 772 mmHg 88%
22:00 +4°C° 0 mm 1 mps 772 mmHg 90%
23:00 +4°C° 0 mm 1 mps 772 mmHg 90%

Tomorrow, 1 March, Monday

Time Temperature Precipitation Wind Pressure Humidity
00:00 +4°C° 0 mm 1 mps 772 mmHg 91%
01:00 +3°C° 0 mm 1 mps 772 mmHg 91%
02:00 +3°C° 0 mm 1 mps 772 mmHg 91%
03:00 +3°C° 0 mm 1 mps 772 mmHg 92%
04:00 +2°C° 0 mm 1 mps 771 mmHg 92%
05:00 +2°C° 0 mm 1 mps 772 mmHg 92%
06:00 +2°C° 0 mm 1 mps 772 mmHg 92%
07:00 +2°C° 0 mm 1 mps 772 mmHg 92%
08:00 +4°C° 0 mm 1 mps 772 mmHg 87%
09:00 +5°C° 0 mm 1 mps 772 mmHg 81%
10:00 +6°C° 0 mm 2 mps 772 mmHg 76%
11:00 +7°C° 0 mm 2 mps 772 mmHg 72%
12:00 +8°C° 0 mm 2 mps 772 mmHg 67%
13:00 +9°C° 0 mm 2 mps 772 mmHg 63%
14:00 +10°C° 0 mm 2 mps 772 mmHg 63%
15:00 +10°C° 0 mm 2 mps 771 mmHg 63%
16:00 +10°C° 0 mm 2 mps 771 mmHg 63%
17:00 +8°C° 0 mm 2 mps 771 mmHg 68%
18:00 +7°C° 0 mm 2 mps 771 mmHg 72%
19:00 +7°C° 0 mm 1 mps 771 mmHg 77%
20:00 +5°C° 0 mm 2 mps 771 mmHg 78%
21:00 +5°C° 0 mm 2 mps 771 mmHg 80%
22:00 +4°C° 0 mm 2 mps 771 mmHg 81%
23:00 +4°C° 0 mm 2 mps 771 mmHg 82%

Day after tomorrow, 2 March, Tuesday

Time Temperature Precipitation Wind Pressure Humidity
00:00 +3°C° 0 mm 2 mps 771 mmHg 83%
01:00 +4°C° 0 mm 1 mps 771 mmHg 83%
02:00 +3°C° 0 mm 2 mps 771 mmHg 84%
03:00 +2°C° 0 mm 2 mps 771 mmHg 85%
04:00 +2°C° 0 mm 2 mps 770 mmHg 87%
05:00 +2°C° 0 mm 2 mps 770 mmHg 87%
06:00 +2°C° 0 mm 2 mps 770 mmHg 88%
07:00 +2°C° 0 mm 2 mps 770 mmHg 88%
08:00 +3°C° 0 mm 2 mps 770 mmHg 83%
09:00 +5°C° 0 mm 2 mps 771 mmHg 78%
10:00 +7°C° 0 mm 2 mps 771 mmHg 73%
11:00 +8°C° 0 mm 2 mps 771 mmHg 68%
12:00 +9°C° 0 mm 2 mps 771 mmHg 63%
13:00 +12°C° 0 mm 2 mps 770 mmHg 58%
14:00 +12°C° 0 mm 2 mps 770 mmHg 58%
15:00 +12°C° 0 mm 2 mps 770 mmHg 59%
16:00 +12°C° 0 mm 1 mps 769 mmHg 60%
17:00 +11°C° 0 mm 1 mps 769 mmHg 65%
18:00 +9°C° 0 mm 1 mps 769 mmHg 70%
19:00 +7°C° 0 mm 1 mps 769 mmHg 76%
20:00 +7°C° 0 mm 1 mps 770 mmHg 77%
21:00 +6°C° 0 mm 0 mps 770 mmHg 79%
22:00 +5°C° 0 mm 0 mps 770 mmHg 81%
23:00 +5°C° 0 mm 0 mps 770 mmHg 82%

3 March, Wednesday

Time Temperature Precipitation Wind Pressure Humidity
00:00 +4°C° 0 mm 0 mps 769 mmHg 83%
01:00 +4°C° 0 mm 0 mps 769 mmHg 84%
02:00 +4°C° 0 mm 0 mps 769 mmHg 84%
03:00 +3°C° 0 mm 0 mps 769 mmHg 84%
04:00 +3°C° 0 mm 0 mps 769 mmHg 85%
05:00 +3°C° 0 mm 0 mps 769 mmHg 85%
06:00 +3°C° 0 mm 0 mps 768 mmHg 85%
07:00 +4°C° 0 mm 1 mps 768 mmHg 85%
08:00 +5°C° 0 mm 1 mps 768 mmHg 79%
09:00 +7°C° 0 mm 1 mps 768 mmHg 72%
10:00 +9°C° 0 mm 1 mps 768 mmHg 66%
11:00 +10°C° 0 mm 1 mps 768 mmHg 61%
12:00 +11°C° 0 mm 1 mps 767 mmHg 56%
13:00 +13°C° 0 mm 2 mps 767 mmHg 51%
14:00 +13°C° 0 mm 1 mps 767 mmHg 52%
15:00 +13°C° 0 mm 1 mps 766 mmHg 53%
16:00 +13°C° 0 mm 1 mps 765 mmHg 55%
17:00 +11°C° 0 mm 1 mps 765 mmHg 61%
18:00 +10°C° 0 mm 1 mps 765 mmHg 67%
19:00 +8°C° 0 mm 1 mps 764 mmHg 73%
20:00 +8°C° 0 mm 1 mps 764 mmHg 76%
21:00 +6°C° 0 mm 2 mps 764 mmHg 80%
22:00 +6°C° 0 mm 2 mps 763 mmHg 84%
23:00 +6°C° 0 mm 2 mps 763 mmHg 86%

4 March, Thursday

Time Temperature Precipitation Wind Pressure Humidity
00:00 +5°C° 0 mm 2 mps 762 mmHg 88%
01:00 +5°C° 0 mm 2 mps 761 mmHg 90%
02:00 +5°C° 0 mm 2 mps 761 mmHg 90%
03:00 +4°C° 0 mm 2 mps 760 mmHg 91%
04:00 +4°C° 0 mm 2 mps 760 mmHg 92%
05:00 +4°C° 0 mm 2 mps 759 mmHg 92%
06:00 +4°C° 0 mm 2 mps 759 mmHg 93%
07:00 +4°C° 0 mm 2 mps 758 mmHg 93%
08:00 +5°C° 0 mm 2 mps 758 mmHg 88%
09:00 +7°C° 0 mm 3 mps 758 mmHg 83%
10:00 +8°C° 0 mm 3 mps 757 mmHg 78%
11:00 +9°C° 0 mm 3 mps 757 mmHg 74%
12:00 +10°C° 0 mm 3 mps 757 mmHg 70%
13:00 +11°C° 0 mm 4 mps 756 mmHg 66%
14:00 +10°C° 0 mm 4 mps 756 mmHg 71%
15:00 +10°C° 0 mm 4 mps 755 mmHg 75%
16:00 +8°C° 0 mm 4 mps 755 mmHg 80%
17:00 +7°C° 0.1 mm 4 mps 754 mmHg 82%
18:00 +7°C° 0.1 mm 4 mps 754 mmHg 84%
19:00 +7°C° 0.1 mm 3 mps 754 mmHg 87%
20:00 +6°C° 0 mm 4 mps 754 mmHg 85%
21:00 +5°C° 0 mm 4 mps 754 mmHg 83%
22:00 +5°C° 0 mm 4 mps 754 mmHg 82%
23:00 +4°C° 0.1 mm 4 mps 755 mmHg 81%

5 March, Friday

Time Temperature Precipitation Wind Pressure Humidity
00:00 +3°C° 0.1 mm 5 mps 755 mmHg 81%
01:00 +2°C° 0.1 mm 6 mps 755 mmHg 80%
02:00 +1°C° 0.2 mm 6 mps 756 mmHg 82%
03:00 -1°C° 0.2 mm 7 mps 756 mmHg 83%
04:00 -2°C° 0.2 mm 7 mps 757 mmHg 85%
05:00 -3°C° 0 mm 6 mps 758 mmHg 84%
06:00 -3°C° 0 mm 6 mps 759 mmHg 83%
07:00 -2°C° 0 mm 5 mps 760 mmHg 83%
08:00 -2°C° 0.2 mm 5 mps 761 mmHg 79%
09:00 -1°C° 0.2 mm 5 mps 762 mmHg 76%
10:00 -1°C° 0.2 mm 5 mps 762 mmHg 72%
11:00 0°C° 0.1 mm 5 mps 763 mmHg 67%
12:00 0°C° 0.1 mm 5 mps 763 mmHg 62%
13:00 0°C° 0.1 mm 5 mps 764 mmHg 56%
14:00 0°C° 0 mm 5 mps 764 mmHg 55%
15:00 -1°C° 0 mm 5 mps 765 mmHg 53%
16:00 -1°C° 0 mm 5 mps 765 mmHg 52%
17:00 -2°C° 0 mm 5 mps 766 mmHg 57%
18:00 -3°C° 0 mm 4 mps 766 mmHg 62%
19:00 -4°C° 0 mm 3 mps 767 mmHg 68%
20:00 -4°C° 0 mm 3 mps 767 mmHg 67%
21:00 -3°C° 0 mm 2 mps 768 mmHg 66%
22:00 -4°C° 0 mm 2 mps 768 mmHg 65%
23:00 -4°C° 0 mm 2 mps 768 mmHg 64%
Show more

We Need Your Consent

Meteoprog and our Service Providers may store and access personal data such as cookies, device identifiers or other similar technologies on your device and process such data to personalise content and ads, as well as provide social media features and to analyse the traffic.

  • Store and/or access information on your device

    Cookies, device identifiers or other information can be stored or accessed on your device for the purposes indicated above.

  • Personalised ads and content, ad and content measurement, audience insights, and products development

    Ads and content can be personalised based on a profile. More data can be added to better personalise ads and content. Ad and content performance can be measured. Insights about the audience who saw the ads and content can be derived. Such data can be used to develop or improve user’s experience, systems and software.

By clicking ‘I Agree’ you will allow the use of indicated cookies, device identifiers, web beacons or other similar technologies. Your settings can be changed in the browser on your device.

For certain purposes, legitimate interests may be relied on, rather than consent. You can read more about this in our Privacy and Cookie Policy.